sat.trackr.live / text

‹ back to catalog

STARLINK-2190

NORAD 48564 · 2021-041M

PAYLOAD ACTIVE UNKNOWN

§ Identity

Operator
Country
US
Launch date
2021-05-15
Launch site
AFETR
Launch vehicle
Mass (kg)
RCS (m²)

Purposes: comms

External: N2YO · Heavens-Above · Gunter

§ Orbital elements

Epoch: 2026-05-25T03:57:59.545728Z

Period
94.01 min
Inclination
53.1577°
Eccentricity
0.0001175
Mean motion
15.31707730 rev/d
Perigee alt
469.9 km
Apogee alt
471.5 km
Semi-major
6,848.9 km
B*
4.0717e-5
RAAN
131.0164°
Arg perigee
90.8657°
Mean anomaly
269.2479°
Rev number
27,699

§ Raw data

STARLINK-21901 48564U 21041M   26145.16527252  .00000899  00000+0  40717-4 0  99912 48564  53.1577 131.0164 0001175  90.8657 269.2479 15.31707730276998

JSON: /api/v1/satellites/48564 · /tle

For live sub-satellite position, see the globe view (requires WebGL).

§ Visibility from observer

Set your observer location to see the next 7 days of passes ≥ 10°. The values pass through the URL so the page stays shareable.

No JS? Fill the form by hand. The geolocation button needs JavaScript.